GFSWCAN_925_thetae_195.txt.gz
Theta_e
300 300 299 299 299 300 300 300 300 300 300 299 299 299 297 295 294 296 299 297 298 295 295 297 297 296 295 294 293 294 291 294 292 297 292 295 297 298 297 297 298 299 297 291 296 301 301 299 299 295 297 297 297 298
298 298 298 297 297 298 298 298 298 297 297 297 297 297 298 297 294 297 298 298 297 296 293 295 295 295 296 296 294 292 292 294 292 289 290 293 295 295 294 295 299 302 297 299 297 297 299 297 297 298 297 297 297 298
297 298 299 299 298 298 297 297 297 297 297 297 297 297 297 297 294 294 296 297 296 294 292 293 294 294 294 295 296 290 290 293 293 291 289 290 288 290 292 295 296 298 299 299 298 298 299 298 296 296 297 297 298 298
298 298 297 297 297 297 297 296 296 296 296 296 296 296 296 296 295 294 294 295 296 295 290 290 294 293 293 293 294 294 293 293 293 287 284 286 291 291 291 294 296 298 299 301 299 298 298 297 296 296 296 296 296 297
296 295 295 294 295 294 295 296 295 295 294 294 295 295 295 294 291 292 295 296 296 294 290 290 293 293 294 293 294 294 293 291 285 289 290 289 292 293 292 293 296 295 296 296 298 298 297 294 295 295 295 296 296 296
295 295 294 294 294 295 295 294 294 294 294 294 294 294 294 293 289 294 290 295 295 294 286 290 291 292 293 294 295 295 294 290 290 292 290 291 292 293 293 291 294 296 297 297 296 298 295 295 296 296 296 296 297 298
295 295 295 295 295 295 294 293 293 294 294 294 295 294 293 290 290 294 291 294 294 293 291 285 286 291 293 293 293 292 294 289 290 289 295 292 292 296 293 296 294 296 296 296 293 296 294 295 294 295 296 296 297 297
295 295 294 294 294 294 293 293 293 294 294 294 294 291 290 290 292 293 294 294 293 292 291 290 285 288 293 288 289 292 288 288 291 293 293 294 293 295 295 294 295 295 296 295 294 294 294 294 295 294 295 295 296 294
295 295 295 295 294 294 294 293 294 295 294 293 291 290 293 294 293 294 293 293 292 292 282 284 284 286 290 287 287 289 289 289 288 294 294 294 292 293 295 296 296 296 295 295 295 295 294 294 293 293 295 295 295 293
296 295 295 295 295 295 295 294 294 295 294 292 291 293 286 294 293 292 293 289 292 292 288 291 284 287 289 287 285 284 283 294 294 293 294 297 293 294 296 296 296 296 295 294 294 295 293 292 291 292 293 292 293 293
295 295 295 295 295 294 295 295 294 293 293 292 293 288 292 292 291 288 284 282 280 281 285 290 290 289 290 290 287 287 284 282 284 293 299 296 294 298 294 293 294 294 294 294 294 294 294 292 292 292 293 294 295 296
295 295 295 294 295 295 295 293 294 293 292 292 292 292 290 287 283 282 277 280 282 286 287 291 290 289 287 287 287 287 286 286 290 294 290 294 297 295 294 293 293 294 295 295 296 295 295 293 293 292 293 294 295 297
294 294 294 294 294 293 293 293 294 292 292 292 290 284 286 280 279 279 279 281 284 289 289 288 287 286 287 289 289 290 286 289 292 292 293 298 295 294 294 294 293 294 295 296 295 294 294 294 294 294 293 295 295 296
293 294 294 293 292 294 293 293 293 292 291 285 280 282 281 277 280 281 284 284 288 289 287 287 287 287 286 286 285 288 289 295 295 297 298 294 293 293 292 292 293 293 294 295 294 294 294 294 294 295 295 295 295 295
293 293 293 292 293 293 293 292 292 291 291 283 282 283 281 285 284 285 284 283 287 287 288 285 285 285 282 284 284 286 289 297 297 296 294 291 291 291 291 292 291 291 293 294 294 294 293 294 294 294 294 295 295 296
292 292 293 293 292 292 292 292 291 291 289 283 283 286 288 288 284 284 286 283 285 286 288 288 282 282 284 286 289 293 293 296 297 294 291 292 291 290 291 291 292 292 292 293 294 294 294 294 294 294 295 296 296 296
292 292 292 293 291 291 291 291 291 289 285 289 288 287 288 287 286 285 287 287 289 285 285 287 291 289 285 288 290 294 295 295 293 291 291 293 292 290 290 291 292 293 293 293 294 296 296 296 295 295 294 295 295 295
292 292 291 291 291 291 291 290 290 287 288 287 287 288 287 286 287 286 287 288 288 287 287 288 291 291 290 288 293 292 291 291 290 290 291 292 291 291 291 290 291 292 293 294 294 295 295 295 294 294 295 295 296 296
292 292 291 291 291 290 288 289 289 288 287 287 287 287 286 287 288 290 289 290 290 291 291 291 291 291 291 290 290 290 289 289 291 291 291 293 292 292 291 291 291 291 292 292 293 293 293 294 294 295 295 296 296 297
292 292 291 290 290 289 287 288 288 289 289 287 287 288 287 288 288 287 286 287 289 293 293 292 290 291 291 290 289 291 290 289 289 290 291 292 292 291 292 292 291 291 291 291 292 293 292 293 293 293 294 294 295 295
292 291 291 291 290 289 289 284 288 288 287 287 287 288 288 287 286 285 288 287 290 291 292 291 290 291 291 292 292 292 291 292 290 291 291 290 291 291 292 293 292 292 291 291 290 291 291 291 291 293 293 293 294 294
291 291 291 291 290 290 289 289 288 288 287 288 287 288 287 287 288 287 285 289 291 291 289 289 290 290 291 290 291 291 292 292 292 291 291 291 289 290 290 292 292 290 291 291 291 291 291 292 292 292 292 293 293 293
291 290 290 290 290 289 286 289 288 288 286 282 287 287 284 287 288 289 290 290 290 290 291 291 292 292 292 293 292 292 291 291 290 290 290 290 291 291 291 291 291 291 290 291 291 292 292 292 292 292 292 293 294 295
291 289 286 286 286 283 283 283 287 289 290 287 286 285 287 287 288 289 291 290 289 289 290 291 291 289 289 290 288 289 290 290 290 290 290 290 289 290 291 291 291 291 291 292 292 292 293 294 294 294 294 294 294 295
284 284 286 284 281 286 283 284 286 289 289 290 286 283 287 287 286 289 291 290 287 287 288 289 289 289 288 287 289 290 291 291 289 288 290 290 290 290 290 291 293 294 294 293 294 293 293 294 294 295 295 295 295 295
283 280 284 283 282 287 288 288 288 289 289 285 289 287 287 287 287 288 290 287 287 287 287 288 287 287 287 288 288 288 289 289 289 288 289 290 291 291 291 291 292 293 293 293 293 294 294 294 294 294 294 294 294 294
284 283 285 285 286 287 287 288 288 287 287 287 284 284 283 283 286 289 286 286 287 289 291 290 289 288 287 288 289 291 291 291 290 291 292 292 292 293 293 292 292 293 293 292 292 292 293 293 292 292 292 292 292 292
285 286 287 287 287 287 285 283 286 287 288 286 286 286 286 287 288 288 286 289 290 291 291 291 291 292 291 291 291 291 291 291 291 291 291 291 291 291 291 291 291 291 291 291 291 291 291 291 291 291 291 290 290 290
288 286 284 281 286 287 286 288 288 287 286 286 287 286 288 286 287 288 289 289 289 290 291 291 291 291 291 290 290 290 290 290 290 289 290 288 288 291 291 291 291 290 290 289 289 289 289 289 289 289 289 289 289 289
286 286 284 283 282 284 287 287 287 286 284 285 285 286 286 286 289 289 289 290 290 290 290 291 291 290 290 289 289 290 290 290 290 290 287 287 289 289 290 290 289 288 288 288 288 288 288 288 288 289 289 289 289 288
285 286 285 285 283 285 286 287 288 287 286 284 284 286 286 286 288 290 290 289 289 290 290 290 291 291 290 289 289 288 288 289 289 289 289 289 289 288 288 288 287 287 287 288 288 288 288 288 288 288 288 288 288 288
286 285 286 285 283 283 284 286 285 285 285 285 285 283 286 286 286 285 289 289 288 288 290 290 289 290 290 290 290 290 290 289 289 289 288 288 288 287 287 287 287 287 287 288 288 288 288 288 288 288 288 288 288 289
287 288 288 288 284 283 285 284 285 284 284 285 285 286 286 287 287 286 287 287 288 288 289 289 289 289 289 289 289 289 288 288 288 287 287 287 287 287 287 287 287 287 287 287 287 287 287 287 288 288 288 288 288 288

GFSWCAN_925_thetae_198.txt.gz
Theta_e
302 301 301 299 300 301 300 301 300 300 300 299 299 296 295 293 294 298 298 297 296 286 292 296 296 295 294 291 289 292 290 289 289 294 293 294 295 297 295 294 293 299 297 293 299 301 300 297 298 296 294 296 297 297
301 300 300 300 300 300 300 299 298 298 298 297 297 297 297 294 294 297 297 296 296 296 292 295 295 295 295 295 292 290 291 291 291 287 288 290 293 292 291 291 293 295 299 299 298 298 297 297 298 298 296 296 296 298
300 299 298 298 298 298 298 297 297 297 297 297 297 296 296 294 292 292 295 296 295 291 290 290 293 294 294 293 294 289 288 292 292 290 287 287 289 289 292 291 293 292 297 299 299 298 298 297 298 298 297 295 295 296
298 299 299 298 298 297 297 297 297 297 296 296 296 296 296 293 292 292 293 295 295 292 289 290 293 292 291 292 293 292 293 293 292 284 283 285 288 289 289 291 291 292 293 293 296 297 297 297 296 294 294 295 296 296
299 298 298 298 297 297 297 296 296 295 295 295 295 294 292 290 290 294 295 295 295 293 288 289 292 293 293 292 292 293 292 289 283 287 285 288 289 289 289 290 293 292 293 293 295 294 295 297 296 295 295 296 295 295
297 296 296 295 295 295 295 295 294 294 294 294 294 294 292 289 289 294 290 294 293 293 284 283 289 291 292 292 293 293 293 288 284 287 287 288 289 293 294 291 292 291 292 294 294 295 296 296 297 294 295 295 296 297
295 295 295 295 295 295 294 294 294 294 294 295 294 293 291 290 289 292 290 294 293 293 285 284 284 288 291 291 291 290 292 286 287 288 291 290 290 295 294 294 293 293 294 294 294 294 295 294 294 294 295 296 296 295
295 295 295 295 295 294 293 293 294 294 293 294 293 291 290 291 292 293 294 293 293 291 291 289 282 285 290 287 288 290 286 283 285 287 289 292 289 291 293 292 292 293 293 293 293 294 293 293 294 293 294 294 295 293
295 295 295 295 294 294 294 293 293 294 294 292 291 290 293 293 293 293 292 293 292 290 279 288 286 285 287 285 284 287 285 285 285 290 290 291 290 295 293 294 294 295 294 295 294 293 292 292 292 293 293 294 294 293
295 295 295 295 295 295 295 294 294 295 294 292 291 292 285 292 292 291 292 288 288 290 287 289 285 286 287 284 283 281 279 290 292 289 293 293 293 295 296 294 293 292 293 294 293 293 293 293 291 292 292 292 292 291
296 296 295 295 295 295 295 294 295 294 293 291 292 287 292 290 291 285 279 280 278 282 282 288 287 287 288 288 286 284 282 278 282 289 294 295 294 296 295 293 293 292 292 293 292 292 293 294 292 290 291 292 293 295
295 295 295 295 295 295 295 294 294 294 292 292 292 291 289 284 277 279 273 277 280 285 284 289 289 287 286 284 285 284 286 282 288 290 294 294 297 295 294 293 292 291 292 293 294 294 294 292 292 291 292 293 294 295
295 296 295 294 294 294 294 294 295 293 292 291 289 280 280 276 279 278 278 279 282 287 288 288 287 284 286 283 281 287 287 289 292 291 294 297 295 293 292 292 292 292 294 294 293 294 293 293 292 292 293 293 294 295
295 295 294 294 294 294 293 293 294 292 291 283 279 282 279 275 279 278 281 283 286 286 286 286 286 286 284 285 279 287 287 289 295 297 296 292 291 291 290 291 290 291 292 293 293 294 294 294 293 294 294 294 294 294
293 293 293 292 292 294 294 293 292 291 290 282 280 282 279 283 280 283 280 280 286 285 286 283 282 282 279 282 282 285 287 294 296 295 292 290 290 289 288 290 290 290 291 292 293 293 293 293 293 292 293 294 294 295
293 293 292 292 294 293 293 293 291 290 288 281 283 285 286 286 282 281 285 281 283 284 284 283 279 283 282 282 287 293 293 295 295 294 291 289 292 289 288 289 290 291 291 292 293 293 293 292 293 293 295 295 295 295
292 291 292 293 292 292 292 291 290 287 282 283 282 286 286 286 285 282 285 286 287 284 284 280 284 285 283 287 289 294 295 293 292 290 289 290 294 292 290 289 290 293 293 294 294 294 294 294 294 294 293 294 295 295
292 292 293 292 291 291 291 290 289 283 283 287 288 286 285 285 285 285 285 287 286 285 287 288 286 285 286 285 292 292 289 289 288 288 289 291 290 290 292 290 290 291 292 293 294 294 294 294 294 294 294 295 295 295
291 292 293 291 291 290 288 289 288 283 285 287 285 285 285 285 285 287 287 288 289 289 289 289 288 290 291 290 290 288 289 289 289 289 289 291 291 291 291 291 291 290 291 291 292 292 293 294 294 294 295 295 295 295
291 292 292 291 290 289 280 286 288 287 283 285 285 286 286 286 286 286 285 283 285 289 290 289 288 289 290 290 288 288 288 288 287 288 289 291 291 290 291 291 290 290 290 291 291 291 292 292 293 293 293 293 293 294
292 291 291 290 289 289 285 279 287 287 287 286 285 286 287 286 285 283 285 285 284 289 289 289 288 289 290 291 290 290 290 290 289 288 290 290 291 290 290 291 291 291 290 290 290 290 291 290 291 292 292 291 292 294
291 291 291 290 289 289 288 288 284 287 286 287 286 287 287 286 288 285 282 285 288 289 287 288 289 289 288 288 290 291 291 291 291 291 291 291 289 289 290 291 291 289 290 290 290 290 291 291 291 291 292 293 293 292
291 290 289 288 287 288 283 288 289 289 287 281 286 286 283 285 287 287 289 289 289 289 290 290 291 291 290 291 292 293 292 291 290 290 290 290 290 290 290 290 290 290 289 290 291 291 292 292 292 292 292 293 294 294
290 289 287 288 279 282 281 285 286 285 287 283 283 283 285 285 286 287 290 289 287 288 288 290 290 288 288 289 288 291 291 290 290 289 289 289 288 289 289 290 290 290 291 292 292 291 292 293 294 294 294 294 294 295
284 287 287 281 280 282 282 280 283 287 282 286 288 283 284 286 286 287 289 288 286 287 287 288 288 288 288 287 288 289 290 290 289 288 290 289 289 289 289 290 292 293 293 293 293 293 293 294 294 294 294 295 295 294
281 281 286 282 282 286 285 284 286 288 288 284 287 286 286 286 286 287 288 287 286 286 286 287 287 287 286 288 287 288 290 290 290 288 289 289 290 289 289 290 291 293 294 293 293 293 293 293 293 293 293 294 294 294
281 284 283 284 286 286 286 287 287 286 286 286 283 282 280 282 284 287 286 285 286 288 290 289 288 288 287 288 289 290 289 289 289 289 290 291 292 292 292 292 291 292 293 293 292 292 292 292 292 292 292 292 292 291
284 285 287 286 286 286 284 282 285 287 287 285 285 284 285 285 286 286 285 288 289 290 291 290 290 290 290 289 289 290 291 291 291 291 291 291 291 292 292 292 292 291 291 291 291 291 291 291 291 291 291 290 290 290
287 286 284 280 285 286 286 287 287 286 286 286 287 285 286 286 286 287 289 289 289 289 290 290 291 291 291 291 291 291 291 290 290 289 289 288 287 290 291 291 291 290 290 289 289 289 289 289 289 289 289 289 289 289
287 285 283 283 282 284 286 286 286 285 285 285 285 285 285 286 289 289 289 289 289 289 289 289 290 290 290 289 289 289 289 290 290 289 287 286 288 290 290 290 290 290 289 288 288 288 288 289 288 288 288 288 288 288
285 284 283 284 282 283 284 285 286 286 284 284 284 285 286 285 287 288 288 289 289 289 289 288 289 290 290 289 288 288 288 290 290 290 289 289 289 289 289 289 288 288 288 287 288 288 288 288 288 288 288 288 288 288
284 285 285 283 282 282 282 284 284 285 284 284 284 282 284 286 285 285 288 288 288 287 288 289 288 289 290 291 291 290 290 290 290 289 289 289 289 288 288 287 287 287 287 287 287 287 287 288 288 288 288 288 288 288
286 286 286 285 282 282 283 284 284 283 282 283 284 285 286 286 286 286 287 287 287 287 287 288 288 289 289 289 290 290 290 289 289 288 288 288 288 287 287 287 287 286 287 287 287 287 287 287 287 287 287 288 288 288

GFSWCAN_925_thetae_201.txt.gz
Theta_e
307 305 303 301 300 300 301 302 301 301 300 299 297 295 293 294 297 296 297 296 295 284 290 295 295 294 293 290 288 291 288 288 288 288 290 293 295 294 293 293 290 289 286 289 294 299 302 297 297 299 297 297 296 296
304 303 301 300 299 301 301 301 300 300 299 298 298 297 294 295 297 295 296 295 295 294 290 294 294 294 294 294 291 288 289 290 290 287 287 289 292 291 291 291 289 290 291 297 295 294 295 296 297 297 297 297 297 294
302 300 300 301 301 301 299 299 298 298 298 297 297 296 294 291 291 293 295 293 294 290 288 289 291 293 293 294 295 288 287 290 291 289 286 287 288 287 289 289 290 290 291 292 291 294 295 293 295 296 297 295 294 293
300 300 300 299 298 299 298 297 297 297 297 296 296 296 294 289 290 291 293 294 293 290 285 289 292 292 291 291 292 292 293 292 290 282 282 284 286 288 288 290 290 291 291 291 291 292 293 293 295 296 296 294 294 295
299 299 299 299 298 298 298 297 297 296 296 296 294 293 291 289 293 294 294 295 295 291 284 287 290 291 291 292 291 291 291 288 282 286 282 286 288 287 287 288 291 291 292 291 292 292 292 293 294 294 295 294 293 294
299 299 298 298 298 297 296 296 295 295 294 294 294 290 289 289 293 293 291 293 293 293 282 281 287 289 291 291 292 292 291 286 282 286 285 287 287 291 292 290 291 292 291 291 292 292 293 293 293 295 295 294 294 296
299 298 297 297 297 296 295 295 295 294 294 294 294 291 290 290 289 291 289 293 293 292 281 283 284 287 289 290 290 289 289 283 285 285 291 288 289 294 294 293 293 293 292 291 291 292 292 292 293 294 293 294 296 294
296 296 295 296 295 295 294 295 295 295 294 294 292 290 291 291 292 293 293 292 291 290 289 279 281 284 288 287 287 287 283 281 284 285 286 291 288 288 292 291 291 292 292 292 291 291 292 292 293 292 292 294 294 292
296 295 296 295 295 294 294 294 294 294 294 292 290 291 293 292 293 293 293 293 292 289 278 276 284 284 286 284 283 285 283 284 283 291 289 290 288 290 292 295 295 295 293 292 292 292 291 291 292 290 293 293 293 292
296 296 296 295 295 294 294 293 294 295 293 292 291 291 286 291 291 292 291 286 287 289 288 281 283 287 286 283 282 280 278 286 290 287 290 294 291 293 296 295 294 293 292 292 292 293 293 292 291 291 291 291 291 290
296 295 295 295 295 295 294 294 294 295 293 291 292 287 291 290 291 283 277 279 277 281 278 285 286 286 286 287 285 282 281 279 284 287 294 292 294 295 293 293 292 291 291 291 291 292 291 291 292 290 291 291 291 293
296 296 296 295 295 296 295 294 295 294 292 291 291 290 289 282 276 279 271 274 279 284 283 288 288 286 285 283 283 282 285 283 286 288 292 295 296 293 292 291 291 291 290 292 293 292 293 292 292 291 291 291 293 294
296 296 296 296 295 295 295 295 294 293 291 291 288 279 279 275 279 277 277 278 281 286 286 287 286 283 284 280 279 287 287 287 290 292 294 295 293 292 291 290 290 291 291 292 293 293 293 292 292 292 291 292 294 294
296 295 295 295 294 295 295 294 294 292 291 281 279 281 278 275 277 277 280 282 285 285 285 285 286 285 283 283 277 286 285 288 291 295 294 292 290 291 290 288 288 290 290 291 292 293 293 292 292 292 292 293 294 294
295 295 295 295 295 294 293 293 293 291 290 282 279 281 280 282 279 281 278 278 284 284 285 282 281 281 277 281 280 284 287 289 295 294 292 290 289 292 291 288 288 289 289 291 293 292 292 292 292 292 292 293 294 294
294 294 293 292 292 294 293 292 291 290 288 280 280 282 285 285 280 280 283 280 282 283 283 282 279 284 284 281 285 289 293 294 293 291 291 288 292 292 291 289 288 290 292 292 292 292 292 292 292 293 294 294 294 294
293 292 293 294 293 293 292 291 290 286 280 280 279 285 285 285 284 280 284 284 285 282 281 277 282 284 281 283 285 292 295 293 290 288 287 288 291 291 292 292 289 290 291 293 293 293 293 293 293 293 292 293 294 295
290 292 294 293 292 291 290 290 287 282 281 277 285 285 284 284 284 284 283 285 284 284 285 286 285 283 283 282 289 290 289 288 288 287 287 288 290 290 290 289 289 290 291 292 293 293 293 293 293 293 294 294 295 294
289 293 293 292 291 290 288 287 288 279 280 285 284 283 284 284 285 286 286 286 287 287 287 285 287 288 290 288 289 288 287 288 288 288 287 289 290 290 291 291 290 290 290 290 291 291 291 292 292 292 293 293 294 294
292 293 292 291 290 288 279 286 288 287 283 285 284 285 285 285 285 285 284 282 284 283 286 287 286 289 288 288 287 287 287 288 287 288 288 289 291 290 290 290 290 290 290 290 290 291 290 291 291 291 291 292 292 293
292 292 292 290 289 288 283 284 283 285 286 285 284 285 286 285 284 282 283 283 280 285 288 287 287 287 288 289 290 289 289 288 287 287 288 288 290 289 290 290 291 290 289 289 289 289 290 289 290 290 290 292 291 293
292 291 290 290 287 287 284 285 283 287 285 286 285 286 286 285 287 285 281 285 286 286 286 287 288 288 287 287 289 290 290 290 290 289 291 291 288 289 289 290 290 289 289 289 289 289 290 291 291 291 291 292 293 293
290 290 288 287 287 288 283 287 287 287 288 283 285 284 282 284 286 286 288 288 287 287 288 288 289 290 289 290 290 290 291 290 288 289 289 290 290 289 289 289 289 289 289 289 290 290 291 292 293 293 292 292 294 295
290 289 283 288 282 282 281 287 285 284 287 286 285 282 283 283 285 286 289 288 287 287 287 288 289 287 288 288 287 290 292 291 290 289 289 289 288 289 289 289 289 289 290 291 291 291 291 292 293 294 293 294 294 294
284 287 282 283 281 281 280 279 281 286 281 284 284 281 283 285 285 286 288 288 285 285 285 286 287 287 288 287 288 289 290 290 289 287 289 289 289 288 288 289 291 293 293 292 292 292 292 293 293 293 294 294 294 293
280 281 286 284 284 285 284 282 284 287 287 282 286 285 285 285 285 287 287 287 285 285 286 287 287 287 286 287 287 288 290 290 290 289 290 289 289 289 288 289 290 292 293 293 292 292 293 293 293 293 292 292 292 292
279 282 283 283 285 285 285 286 286 285 286 284 282 281 280 282 283 286 285 285 285 287 289 289 288 288 287 288 289 289 289 289 289 289 289 289 290 290 291 291 291 292 292 293 292 292 292 292 292 291 291 291 290 290
282 284 286 285 285 285 283 282 285 286 286 284 284 283 284 284 285 285 284 287 288 289 290 290 289 288 289 289 288 289 290 290 290 291 291 291 291 291 291 291 292 292 292 292 291 291 291 291 291 291 290 290 290 289
285 284 284 283 284 286 285 287 286 286 285 285 286 285 286 285 286 286 288 289 289 288 289 289 290 290 290 290 289 289 290 290 290 289 289 287 287 290 291 291 291 290 290 290 290 289 289 289 289 289 289 289 289 288
287 285 283 283 281 284 286 286 285 284 284 285 284 284 284 285 288 288 288 288 288 288 289 288 289 289 290 289 290 290 290 290 290 289 287 286 287 289 289 290 290 290 290 289 289 288 288 288 289 288 288 288 288 288
285 285 284 283 282 283 284 284 285 285 283 281 282 284 287 285 287 288 288 288 288 288 288 288 288 288 289 289 288 288 288 289 289 289 289 289 289 289 289 289 289 289 288 288 288 287 288 288 288 288 288 288 288 288
284 285 284 282 282 282 281 283 283 283 283 284 284 281 284 285 285 286 289 289 287 286 287 287 287 288 289 289 289 290 290 290 289 290 289 289 289 289 289 288 288 287 287 287 287 287 287 287 287 287 288 288 288 288
283 285 284 284 281 281 283 282 283 282 281 282 283 284 285 286 286 285 286 286 286 286 286 286 287 287 288 288 289 289 290 290 290 289 289 289 289 288 288 287 287 287 287 287 287 287 287 287 287 287 287 287 287 287

GFSWCAN_925_thetae_204.txt.gz
Theta_e
313 310 307 306 305 304 303 303 302 301 300 297 295 293 292 294 294 294 295 294 293 285 290 294 295 293 291 289 288 289 286 287 285 285 289 292 294 292 291 291 290 288 281 282 286 292 295 294 292 299 297 296 296 297
309 308 305 304 303 301 301 301 300 300 299 298 297 294 296 295 294 294 294 292 293 292 290 294 294 293 294 293 290 287 288 289 289 287 287 289 292 290 290 289 287 288 288 286 294 292 291 292 293 295 293 293 295 296
305 304 303 302 301 301 301 300 299 298 298 297 296 292 291 292 292 291 292 292 292 288 288 289 290 292 292 294 294 288 286 289 290 287 284 283 285 286 287 288 288 288 289 291 291 291 290 292 292 293 293 294 295 294
303 302 301 300 299 300 301 299 298 298 297 297 296 291 290 290 291 291 293 293 292 288 284 288 290 291 291 291 291 291 292 290 288 282 279 281 284 287 286 290 290 290 289 289 289 290 290 291 291 292 293 293 294 294
301 301 300 302 300 298 297 298 298 297 297 295 294 289 289 291 293 293 292 292 291 289 283 286 289 290 290 290 290 290 291 287 281 283 280 286 287 286 285 287 290 288 290 291 292 291 291 291 291 292 292 293 294 293
300 300 299 299 299 298 298 298 297 296 295 294 294 289 290 292 292 292 290 292 292 291 283 282 286 288 289 290 291 290 289 285 280 284 284 286 286 287 285 288 288 290 290 291 292 292 292 291 291 292 292 293 293 292
299 299 298 298 299 297 297 296 295 295 295 295 291 290 289 289 290 292 289 292 291 290 282 279 283 286 287 289 289 287 288 280 282 282 290 288 287 292 290 292 292 291 292 291 291 290 290 290 291 292 292 293 293 292
299 298 299 298 297 296 295 295 295 295 295 294 290 290 290 292 292 292 292 292 291 289 284 277 280 283 287 285 286 286 281 280 284 290 287 291 287 285 291 290 291 294 295 294 294 291 291 291 291 291 292 291 290 291
298 297 297 296 295 295 295 295 295 295 294 290 291 291 292 292 292 292 292 291 290 288 278 274 281 284 286 283 281 283 282 285 283 290 290 289 288 291 291 295 294 294 293 293 292 291 290 290 291 291 291 289 291 291
296 297 296 295 295 295 295 295 295 294 291 291 291 291 288 291 292 292 290 285 283 283 286 280 280 285 285 283 280 280 277 279 282 285 287 289 291 292 293 293 292 291 291 291 290 292 293 293 291 290 290 289 290 290
296 296 295 295 294 294 294 295 295 293 292 291 291 287 289 290 290 283 277 279 275 279 275 284 285 285 285 286 284 281 279 283 282 286 292 291 292 293 291 290 290 289 290 290 290 291 291 291 290 290 290 290 291 292
296 296 295 295 295 294 294 295 294 293 292 291 291 289 288 281 276 279 270 272 279 284 283 287 287 285 283 282 283 280 284 282 285 286 291 295 294 292 291 291 290 288 289 290 291 292 292 292 291 291 290 291 293 293
296 296 296 296 296 296 296 295 294 292 291 290 288 279 280 275 279 277 277 277 281 285 286 286 286 283 282 279 277 285 286 286 288 292 294 295 292 291 290 291 290 288 289 290 291 292 291 291 291 291 291 292 293 294
296 296 296 296 296 295 295 294 293 291 291 282 279 281 278 275 276 276 279 282 285 285 284 285 285 284 283 282 275 285 282 284 291 294 292 291 289 289 290 290 288 287 289 290 291 292 291 291 290 291 292 293 294 293
295 295 295 295 295 295 294 294 292 291 289 282 281 282 279 282 278 280 277 278 283 284 285 281 280 280 278 280 279 281 283 287 294 293 291 289 289 288 289 290 289 287 290 292 292 292 291 291 292 292 293 293 293 293
295 295 295 295 294 294 294 293 291 290 287 280 280 283 284 285 280 280 282 280 282 283 282 281 279 282 283 280 283 286 290 294 290 290 289 287 288 288 290 292 290 290 291 291 292 292 292 293 292 292 293 293 294 294
294 292 295 295 294 294 292 292 290 283 279 280 281 285 285 285 284 281 283 283 284 282 280 274 280 283 279 280 282 287 291 293 290 288 286 286 286 288 290 290 290 291 291 291 292 292 292 292 293 293 292 293 294 295
291 292 294 294 293 291 290 289 285 281 283 278 285 285 284 284 284 284 282 283 284 282 281 282 283 281 283 281 287 287 289 287 285 285 285 287 288 289 290 289 289 290 289 290 291 292 292 293 292 292 293 293 294 294
293 294 293 292 291 290 288 287 286 280 282 284 284 283 284 284 284 286 285 285 286 286 284 281 286 287 288 286 286 286 285 286 288 287 286 289 290 289 289 289 290 289 289 289 290 290 290 290 290 291 292 292 292 293
293 293 292 291 290 288 281 286 287 281 282 284 284 284 284 285 284 284 283 282 282 281 287 285 286 287 287 287 286 286 286 287 286 287 287 288 290 290 289 289 290 289 289 289 290 290 290 290 289 290 290 291 292 293
293 292 291 290 289 287 282 284 282 281 284 284 283 284 285 284 282 281 282 283 278 281 286 286 286 286 287 288 288 289 288 287 286 286 287 287 290 290 290 289 290 289 289 289 288 288 290 289 290 290 292 292 291 293
292 291 290 289 287 286 280 284 282 284 284 286 284 285 285 284 286 284 280 284 285 285 284 285 287 287 287 286 288 289 289 289 289 288 289 290 289 289 289 289 289 288 288 288 289 289 290 291 292 291 291 293 293 294
290 289 288 287 285 283 282 286 285 286 287 284 284 283 281 283 286 284 287 287 286 286 287 287 288 288 288 289 288 289 289 289 288 288 288 289 290 290 289 289 288 288 288 288 290 290 290 292 293 293 292 293 294 293
289 288 282 284 277 280 281 282 283 283 287 282 286 284 282 282 284 285 288 287 286 286 286 287 287 286 287 287 286 288 290 290 289 289 289 289 288 288 288 288 288 289 289 291 291 291 291 292 293 293 293 293 293 293
284 282 281 285 283 282 278 279 281 285 283 282 282 279 282 283 283 285 288 287 285 285 284 286 285 285 285 285 288 289 290 290 289 288 289 289 288 288 288 288 289 291 292 292 292 292 292 292 293 293 293 293 293 292
278 281 285 283 284 284 283 281 282 285 286 280 285 284 283 283 284 287 286 286 285 284 285 285 286 285 285 287 287 288 289 289 289 288 289 290 289 288 288 287 288 291 293 292 292 292 292 292 292 292 292 291 291 291
277 279 283 283 284 284 284 285 284 284 285 283 281 280 279 283 283 285 284 285 285 287 287 289 288 287 287 287 288 289 289 288 289 289 289 289 289 289 289 289 290 291 292 292 292 291 291 291 291 291 291 290 290 289
281 283 286 284 285 284 283 281 284 285 285 283 283 282 284 284 285 284 283 287 287 287 288 289 289 288 288 289 288 288 288 287 289 290 290 290 290 291 291 291 291 291 291 291 291 290 290 290 290 290 290 289 289 289
283 284 284 286 284 285 284 286 286 285 285 284 285 284 285 284 285 286 287 288 288 288 288 288 288 289 290 290 289 288 289 290 290 289 289 287 287 289 290 290 290 290 290 290 290 289 289 289 288 288 288 288 288 288
284 284 283 282 281 284 285 285 285 284 284 284 284 284 284 284 287 288 288 287 287 288 288 288 288 288 288 289 289 289 289 290 290 289 287 286 287 288 289 289 289 290 290 290 289 289 288 288 288 289 288 287 287 287
284 283 282 283 281 282 284 284 284 284 283 281 282 284 287 285 287 288 288 288 288 288 288 287 287 288 288 288 288 288 288 289 289 289 289 289 289 289 289 289 289 289 290 289 288 288 287 287 287 287 287 287 287 287
283 284 284 281 281 280 282 283 282 282 281 282 282 280 282 284 284 286 288 288 287 286 286 286 286 286 288 288 288 288 289 289 289 289 289 289 289 289 289 288 288 288 288 287 287 287 287 287 287 287 287 287 287 287
282 283 282 282 281 282 282 281 281 281 280 280 282 283 284 285 286 286 286 286 286 286 286 286 286 286 286 287 287 288 288 289 289 289 289 289 289 289 288 288 288 287 287 287 287 287 287 287 287 287 287 287 287 287